Time,TemperatureF,DewpointF,PressureIn,WindDirection,WindDirectionDegrees,WindSpeedMPH,WindSpeedGustMPH,Humidity,HourlyPrecipIn,Conditions,Clouds,dailyrainin,SoftwareType,DateUTC
2013-03-02 00:02:00,59.0,51.0,29.96,NW,315,3.0,6.0,74,0.00,,,0.00,,2013-03-02 05:02:00,
2013-03-02 00:12:00,59.0,51.0,29.96,NW,315,3.0,6.0,74,0.00,,,0.00,,2013-03-02 05:12:00,
2013-03-02 00:22:00,58.0,50.0,29.96,NNW,336,2.0,5.0,75,0.00,,,0.00,,2013-03-02 05:22:00,
2013-03-02 00:32:00,58.0,50.0,29.96,NW,314,4.0,4.0,75,0.00,,,0.00,,2013-03-02 05:32:00,
2013-03-02 00:42:00,58.0,50.0,29.96,NW,314,4.0,4.0,75,0.00,,,0.00,,2013-03-02 05:42:00,
2013-03-02 00:52:00,58.0,50.0,29.95,NW,304,5.0,6.0,74,0.00,,,0.00,,2013-03-02 05:52:00,
2013-03-02 01:01:00,58.0,50.0,29.96,WNW,295,4.0,5.0,74,0.00,,,0.00,,2013-03-02 06:01:00,
2013-03-02 01:11:00,58.0,50.0,29.96,WNW,295,4.0,5.0,74,0.00,,,0.00,,2013-03-02 06:11:00,
2013-03-02 01:21:00,58.0,50.0,29.95,WNW,285,5.0,9.0,74,0.00,,,0.00,,2013-03-02 06:21:00,
2013-03-02 01:32:00,58.0,49.0,29.96,NNW,342,6.0,6.0,72,0.00,,,0.00,,2013-03-02 06:32:00,
2013-03-02 01:42:00,58.0,49.0,29.96,NNW,342,6.0,6.0,72,0.00,,,0.00,,2013-03-02 06:42:00,
2013-03-02 01:52:00,58.0,49.0,29.96,WNW,288,5.0,5.0,72,0.00,,,0.00,,2013-03-02 06:52:00,
2013-03-02 02:01:00,58.0,48.0,29.96,WNW,290,6.0,6.0,70,0.00,,,0.00,,2013-03-02 07:01:00,
2013-03-02 02:11:00,58.0,47.0,29.94,North,11,4.0,7.0,68,0.00,,,0.00,,2013-03-02 07:11:00,
2013-03-02 02:21:00,58.0,47.0,29.94,North,11,4.0,7.0,68,0.00,,,0.00,,2013-03-02 07:21:00,
2013-03-02 02:32:00,57.0,45.0,29.95,North,357,6.0,6.0,65,0.00,,,0.00,,2013-03-02 07:32:00,
2013-03-02 02:42:00,57.0,45.0,29.95,North,357,6.0,6.0,65,0.00,,,0.00,,2013-03-02 07:42:00,
2013-03-02 02:52:00,57.0,43.0,29.95,NNW,343,6.0,7.0,60,0.00,,,0.00,,2013-03-02 07:52:00,
2013-03-02 03:01:00,57.0,44.0,29.94,NNW,335,5.0,5.0,61,0.00,,,0.00,,2013-03-02 08:01:00,
2013-03-02 03:11:00,57.0,44.0,29.94,NNW,335,5.0,5.0,61,0.00,,,0.00,,2013-03-02 08:11:00,
2013-03-02 03:22:00,57.0,43.0,29.95,North,357,7.0,7.0,60,0.00,,,0.00,,2013-03-02 08:22:00,
2013-03-02 03:32:00,57.0,44.0,29.95,North,359,7.0,8.0,61,0.00,,,0.00,,2013-03-02 08:32:00,
2013-03-02 03:42:00,57.0,44.0,29.95,North,359,7.0,8.0,61,0.00,,,0.00,,2013-03-02 08:42:00,
2013-03-02 03:52:00,56.0,43.0,29.95,NW,322,7.0,7.0,62,0.00,,,0.00,,2013-03-02 08:52:00,
2013-03-02 04:02:00,56.0,43.0,29.95,North,350,5.0,7.0,62,0.00,,,0.00,,2013-03-02 09:02:00,
2013-03-02 04:11:00,56.0,44.0,29.95,North,359,3.0,5.0,63,0.00,,,0.00,,2013-03-02 09:11:00,
2013-03-02 04:22:00,56.0,44.0,29.95,North,359,3.0,5.0,63,0.00,,,0.00,,2013-03-02 09:22:00,
2013-03-02 04:32:00,56.0,44.0,29.95,North,357,6.0,6.0,64,0.00,,,0.00,,2013-03-02 09:32:00,
2013-03-02 04:42:00,56.0,44.0,29.95,North,357,6.0,6.0,64,0.00,,,0.00,,2013-03-02 09:42:00,
2013-03-02 04:51:00,56.0,44.0,29.95,WNW,291,5.0,11.0,64,0.00,,,0.00,,2013-03-02 09:51:00,
2013-03-02 05:01:00,56.0,45.0,29.96,NNW,332,5.0,5.0,66,0.00,,,0.00,,2013-03-02 10:01:00,
2013-03-02 05:16:00,56.0,45.0,29.96,NNW,332,5.0,5.0,66,0.00,,,0.00,,2013-03-02 10:16:00,
2013-03-02 05:22:00,56.0,45.0,29.95,North,350,7.0,15.0,66,0.00,,,0.00,,2013-03-02 10:22:00,
2013-03-02 05:32:00,56.0,45.0,29.96,North,0,6.0,6.0,67,0.00,,,0.00,,2013-03-02 10:32:00,
2013-03-02 05:43:00,56.0,45.0,29.96,North,0,6.0,6.0,67,0.00,,,0.00,,2013-03-02 10:43:00,
2013-03-02 05:52:00,55.0,45.0,29.96,NW,305,4.0,7.0,68,0.00,,,0.00,,2013-03-02 10:52:00,
2013-03-02 06:01:00,56.0,46.0,29.96,NW,316,7.0,8.0,68,0.00,,,0.00,,2013-03-02 11:01:00,
2013-03-02 06:11:00,56.0,46.0,29.96,NW,316,7.0,8.0,68,0.00,,,0.00,,2013-03-02 11:11:00,
2013-03-02 06:21:00,55.0,45.0,29.98,NNW,339,6.0,7.0,68,0.00,,,0.00,,2013-03-02 11:21:00,
2013-03-02 06:32:00,55.0,45.0,29.99,North,349,6.0,6.0,68,0.00,,,0.00,,2013-03-02 11:32:00,
2013-03-02 06:42:00,55.0,45.0,29.99,North,349,6.0,6.0,68,0.00,,,0.00,,2013-03-02 11:42:00,
2013-03-02 06:52:00,55.0,45.0,29.99,North,359,10.0,10.0,69,0.00,,,0.00,,2013-03-02 11:52:00,
2013-03-02 07:02:00,55.0,45.0,30.00,NW,308,7.0,7.0,68,0.00,,,0.00,,2013-03-02 12:02:00,
2013-03-02 07:11:00,55.0,45.0,30.00,NW,308,7.0,7.0,68,0.00,,,0.00,,2013-03-02 12:11:00,
2013-03-02 07:22:00,54.0,44.0,30.00,North,3,6.0,9.0,69,0.00,,,0.00,,2013-03-02 12:22:00,
2013-03-02 07:33:00,54.0,44.0,30.01,NNW,339,7.0,7.0,68,0.00,,,0.00,,2013-03-02 12:33:00,
2013-03-02 07:43:00,54.0,44.0,30.01,NNW,339,7.0,7.0,68,0.00,,,0.00,,2013-03-02 12:43:00,
2013-03-02 07:53:00,54.0,42.0,30.01,NNE,23,8.0,8.0,63,0.00,,,0.00,,2013-03-02 12:53:00,
2013-03-02 08:01:00,54.0,42.0,30.01,NW,325,6.0,8.0,64,0.00,,,0.00,,2013-03-02 13:01:00,
2013-03-02 08:11:00,54.0,42.0,30.01,NW,325,6.0,8.0,64,0.00,,,0.00,,2013-03-02 13:11:00,
2013-03-02 08:22:00,53.0,41.0,30.02,WNW,302,7.0,8.0,64,0.00,,,0.00,,2013-03-02 13:22:00,
2013-03-02 08:32:00,53.0,39.0,30.01,NNW,329,10.0,10.0,59,0.00,,,0.00,,2013-03-02 13:32:00,
2013-03-02 08:42:00,53.0,39.0,30.01,NNW,329,10.0,10.0,59,0.00,,,0.00,,2013-03-02 13:42:00,
2013-03-02 08:52:00,54.0,38.0,30.02,NNW,333,9.0,9.0,55,0.00,,,0.00,,2013-03-02 13:52:00,
2013-03-02 09:01:00,54.0,37.0,30.01,NW,326,6.0,9.0,53,0.00,,,0.00,,2013-03-02 14:01:00,
2013-03-02 09:11:00,54.0,37.0,30.01,NW,326,6.0,9.0,53,0.00,,,0.00,,2013-03-02 14:11:00,
2013-03-02 09:22:00,54.0,37.0,30.01,NNW,342,6.0,6.0,53,0.00,,,0.00,,2013-03-02 14:22:00,
2013-03-02 09:32:00,55.0,37.0,30.01,North,359,5.0,5.0,51,0.00,,,0.00,,2013-03-02 14:32:00,
2013-03-02 09:42:00,55.0,37.0,30.01,North,359,5.0,5.0,51,0.00,,,0.00,,2013-03-02 14:42:00,
2013-03-02 09:52:00,56.0,38.0,30.01,North,0,3.0,3.0,50,0.00,,,0.00,,2013-03-02 14:52:00,
2013-03-02 10:02:00,56.0,37.0,30.00,North,10,4.0,7.0,48,0.00,,,0.00,,2013-03-02 15:02:00,
2013-03-02 10:11:00,56.0,37.0,30.00,North,10,4.0,7.0,48,0.00,,,0.00,,2013-03-02 15:11:00,
2013-03-02 10:22:00,57.0,38.0,30.01,NNE,17,3.0,4.0,49,0.00,,,0.00,,2013-03-02 15:22:00,
2013-03-02 10:32:00,58.0,38.0,30.01,NW,315,3.0,3.0,48,0.00,,,0.00,,2013-03-02 15:32:00,
2013-03-02 10:42:00,58.0,38.0,30.01,NW,315,3.0,3.0,48,0.00,,,0.00,,2013-03-02 15:42:00,
2013-03-02 10:52:00,58.0,38.0,30.01,North,359,5.0,5.0,47,0.00,,,0.00,,2013-03-02 15:52:00,
2013-03-02 11:02:00,59.0,38.0,30.00,North,10,3.0,3.0,46,0.00,,,0.00,,2013-03-02 16:02:00,
2013-03-02 11:11:00,59.0,38.0,30.00,North,10,3.0,3.0,46,0.00,,,0.00,,2013-03-02 16:11:00,
2013-03-02 11:21:00,59.0,38.0,30.00,North,359,8.0,8.0,46,0.00,,,0.00,,2013-03-02 16:21:00,
2013-03-02 11:32:00,61.0,40.0,30.00,NW,307,5.0,5.0,46,0.00,,,0.00,,2013-03-02 16:32:00,
2013-03-02 11:42:00,61.0,40.0,30.00,NW,307,5.0,5.0,46,0.00,,,0.00,,2013-03-02 16:42:00,
2013-03-02 11:52:00,61.0,40.0,30.00,NW,314,6.0,8.0,46,0.00,,,0.00,,2013-03-02 16:52:00,
2013-03-02 12:01:00,62.0,40.0,29.99,NNW,338,6.0,6.0,45,0.00,,,0.00,,2013-03-02 17:01:00,
2013-03-02 12:11:00,62.0,40.0,29.99,NNW,338,6.0,6.0,45,0.00,,,0.00,,2013-03-02 17:11:00,
2013-03-02 12:21:00,61.0,39.0,29.99,NW,325,8.0,9.0,44,0.00,,,0.00,,2013-03-02 17:21:00,
2013-03-02 12:32:00,63.0,41.0,29.98,North,359,9.0,11.0,45,0.00,,,0.00,,2013-03-02 17:32:00,
2013-03-02 12:42:00,63.0,41.0,29.98,North,359,9.0,11.0,45,0.00,,,0.00,,2013-03-02 17:42:00,
2013-03-02 12:52:00,63.0,42.0,29.97,NNW,330,10.0,10.0,47,0.00,,,0.00,,2013-03-02 17:52:00,
2013-03-02 13:02:00,63.0,42.0,29.97,NNW,346,9.0,9.0,47,0.00,,,0.00,,2013-03-02 18:02:00,
2013-03-02 13:11:00,63.0,42.0,29.97,NNW,346,9.0,9.0,47,0.00,,,0.00,,2013-03-02 18:11:00,
2013-03-02 13:22:00,63.0,42.0,29.97,NNE,15,10.0,14.0,47,0.00,,,0.00,,2013-03-02 18:22:00,
2013-03-02 13:32:00,63.0,43.0,29.96,NW,321,7.0,9.0,48,0.00,,,0.00,,2013-03-02 18:32:00,
2013-03-02 13:42:00,63.0,43.0,29.96,NW,321,7.0,9.0,48,0.00,,,0.00,,2013-03-02 18:42:00,
2013-03-02 13:52:00,65.0,44.0,29.95,North,354,10.0,10.0,46,0.00,,,0.00,,2013-03-02 18:52:00,
2013-03-02 14:01:00,64.0,43.0,29.95,North,11,10.0,10.0,47,0.00,,,0.00,,2013-03-02 19:01:00,
2013-03-02 14:10:00,65.0,44.0,29.94,NNW,330,8.0,13.0,47,0.00,,,0.00,,2013-03-02 19:10:00,
2013-03-02 14:12:00,64.0,43.0,29.95,North,11,10.0,10.0,47,0.00,,,0.00,,2013-03-02 19:12:00,
2013-03-02 14:22:00,65.0,45.0,29.94,WNW,297,7.0,10.0,48,0.00,,,0.00,,2013-03-02 19:22:00,
2013-03-02 14:32:00,65.0,44.0,29.94,NNW,330,8.0,13.0,47,0.00,,,0.00,,2013-03-02 19:32:00,
2013-03-02 14:42:00,65.0,44.0,29.94,NNW,330,8.0,13.0,47,0.00,,,0.00,,2013-03-02 19:42:00,
2013-03-02 14:52:00,65.0,44.0,29.94,NNW,330,8.0,13.0,47,0.00,,,0.00,,2013-03-02 19:52:00,
2013-03-02 15:01:00,65.0,44.0,29.94,NNW,330,8.0,13.0,47,0.00,,,0.00,,2013-03-02 20:01:00,
2013-03-02 15:32:00,63.0,42.0,29.95,NW,304,9.0,9.0,46,0.00,,,0.00,,2013-03-02 20:32:00,
2013-03-02 15:42:00,63.0,42.0,29.95,NW,304,9.0,9.0,46,0.00,,,0.00,,2013-03-02 20:42:00,
2013-03-02 15:53:00,63.0,42.0,29.95,NW,304,9.0,9.0,46,0.00,,,0.00,,2013-03-02 20:53:00,
2013-03-02 16:02:00,63.0,42.0,29.95,NW,304,9.0,9.0,46,0.00,,,0.00,,2013-03-02 21:02:00,
2013-03-02 16:11:00,63.0,42.0,29.95,NW,304,9.0,9.0,46,0.00,,,0.00,,2013-03-02 21:11:00,
2013-03-02 18:11:00,60.0,44.0,29.97,NW,305,3.0,9.0,55,0.00,,,0.00,,2013-03-02 23:11:00,
2013-03-02 18:22:00,60.0,44.0,29.97,NW,305,3.0,9.0,55,0.00,,,0.00,,2013-03-02 23:22:00,
2013-03-02 18:32:00,59.0,43.0,29.98,WNW,300,8.0,8.0,56,0.00,,,0.00,,2013-03-02 23:32:00,
2013-03-02 18:42:00,59.0,43.0,29.98,WNW,300,8.0,8.0,56,0.00,,,0.00,,2013-03-02 23:42:00,
2013-03-02 18:52:00,59.0,43.0,29.98,North,4,5.0,5.0,56,0.00,,,0.00,,2013-03-02 23:52:00,
2013-03-02 19:02:00,59.0,43.0,29.98,North,4,5.0,5.0,56,0.00,,,0.00,,2013-03-03 00:02:00,
2013-03-02 19:11:00,59.0,43.0,29.98,North,4,5.0,5.0,56,0.00,,,0.00,,2013-03-03 00:11:00,
2013-03-02 19:22:00,59.0,43.0,29.98,North,4,5.0,5.0,56,0.00,,,0.00,,2013-03-03 00:22:00,
2013-03-02 20:01:00,57.0,44.0,30.01,West,273,4.0,7.0,61,0.00,,,0.00,,2013-03-03 01:01:00,
2013-03-02 20:11:00,57.0,44.0,30.01,West,273,4.0,7.0,61,0.00,,,0.00,,2013-03-03 01:11:00,
2013-03-02 20:21:00,57.0,44.0,30.01,WNW,302,3.0,3.0,61,0.00,,,0.00,,2013-03-03 01:21:00,
2013-03-02 20:32:00,57.0,44.0,30.01,WNW,302,3.0,3.0,61,0.00,,,0.00,,2013-03-03 01:32:00,
2013-03-02 20:42:00,57.0,44.0,30.01,WNW,302,3.0,3.0,61,0.00,,,0.00,,2013-03-03 01:42:00,
2013-03-02 20:52:00,57.0,44.0,30.01,WNW,302,3.0,3.0,61,0.00,,,0.00,,2013-03-03 01:52:00,
2013-03-02 21:01:00,57.0,44.0,30.01,WNW,302,3.0,3.0,61,0.00,,,0.00,,2013-03-03 02:01:00,
2013-03-02 21:11:00,56.0,44.0,30.01,West,273,2.0,3.0,65,0.00,,,0.00,,2013-03-03 02:11:00,
2013-03-02 21:22:00,56.0,44.0,30.01,West,273,2.0,3.0,65,0.00,,,0.00,,2013-03-03 02:22:00,
2013-03-02 21:32:00,56.0,44.0,30.01,West,273,2.0,3.0,65,0.00,,,0.00,,2013-03-03 02:32:00,
2013-03-02 21:42:00,56.0,44.0,30.01,West,273,2.0,3.0,65,0.00,,,0.00,,2013-03-03 02:42:00,
2013-03-02 21:52:00,56.0,44.0,30.01,West,273,2.0,3.0,65,0.00,,,0.00,,2013-03-03 02:52:00,
2013-03-02 22:01:00,56.0,45.0,30.02,WNW,290,0.0,1.0,67,0.00,,,0.00,,2013-03-03 03:01:00,
2013-03-02 22:11:00,56.0,45.0,30.02,WNW,290,0.0,1.0,67,0.00,,,0.00,,2013-03-03 03:11:00,
2013-03-02 22:22:00,56.0,45.0,30.02,WNW,290,0.0,1.0,67,0.00,,,0.00,,2013-03-03 03:22:00,
2013-03-02 22:32:00,56.0,45.0,30.02,WNW,290,0.0,1.0,67,0.00,,,0.00,,2013-03-03 03:32:00,
2013-03-02 22:42:00,56.0,45.0,30.02,WNW,290,0.0,1.0,67,0.00,,,0.00,,2013-03-03 03:42:00,
2013-03-02 22:52:00,55.0,44.0,30.02,West,280,4.0,4.0,67,0.00,,,0.00,,2013-03-03 03:52:00,
2013-03-02 23:01:00,54.0,44.0,30.02,West,273,2.0,3.0,69,0.00,,,0.00,,2013-03-03 04:01:00,
2013-03-02 23:11:00,54.0,44.0,30.02,West,273,2.0,3.0,69,0.00,,,0.00,,2013-03-03 04:11:00,
2013-03-02 23:21:00,54.0,44.0,30.01,WNW,294,2.0,4.0,70,0.00,,,0.00,,2013-03-03 04:21:00,
2013-03-02 23:32:00,54.0,44.0,30.01,WNW,294,2.0,4.0,70,0.00,,,0.00,,2013-03-03 04:32:00,
2013-03-02 23:42:00,54.0,44.0,30.01,WNW,294,2.0,4.0,70,0.00,,,0.00,,2013-03-03 04:42:00,
2013-03-02 23:51:00,54.0,45.0,30.00,WNW,302,1.0,0.0,71,0.00,,,0.00,,2013-03-03 04:51:00,